Stations météo

réclame
Mon MeteoGroup
Manschnow, Allemagne (10396): Température de l'air & dewpoint: 17.09.2018 04:00:00 - 23.09.2018 04:00:00 (CEST)Manschnow, Allemagne (10396): Température de l'air 5cm & Température de l'air -5cm: 17.09.2018 04:00:00 - 23.09.2018 04:00:00 (CEST)Manschnow, Allemagne (10396): Température de l'air -20cm & Température de l'air -100cm: 17.09.2018 04:00:00 - 23.09.2018 04:00:00 (CEST)Manschnow, Allemagne (10396): Vitesse du vent & gusts: 17.09.2018 04:00:00 - 23.09.2018 04:00:00 (CEST)Manschnow, Allemagne (10396): Direction du vent: 17.09.2018 04:00:00 - 23.09.2018 04:00:00 (CEST)Manschnow, Allemagne (10396): reduced air pressure: 17.09.2018 04:00:00 - 23.09.2018 04:00:00 (CEST)Manschnow, Allemagne (10396): visibility: 17.09.2018 04:00:00 - 23.09.2018 04:00:00 (CEST)Manschnow, Allemagne (10396): Ensoleillement: 17.09.2018 04:00:00 - 23.09.2018 04:00:00 (CEST)Manschnow, Allemagne (10396): Quantités de précipitations: 17.09.2018 04:00:00 - 23.09.2018 04:00:00 (CEST)
Date & Time tt [°C] td [°C] tt 5cm [°C] tt -5cm [°C] tt -20cm [°C] tt -100cm [°C] ff [km/h] ff [knt] fx [km/h] fx [knt] dd ppp [hPa] vv [km] sd [min] rr [mm]
23.09.2018 04:00:00 10,9 8,2 10,5 13,7 17,3 19,1 14 8 22 12 WSW 1015,8 29 0 0,0
23.09.2018 03:00:00 11,1 8,3 10,6 13,9 17,5 19,1 12 6 19 11 WSW 1015,9 28 0 0,0
23.09.2018 02:00:00 11,6 7,9 11,0 14,1 17,7 19,1 10 5 19 10 WSW 1016,1 39 0 0,0
23.09.2018 01:00:00 11,6 8,0 10,9 14,3 17,9 19,1 10 6 22 12 SW 1016,4 47 0 0,1
23.09.2018 00:00:00 12,4 7,2 11,3 14,7 18,1 19,1 21 11 30 16 W 1016,7 20 0 0,0
22.09.2018 23:00:00 12,8 6,2 12,2 15,1 18,3 19,1 8 4 20 11 W 1016,4 55 0 0,0
22.09.2018 22:00:00 13,6 4,7 12,1 15,2 18,5 19,1 8 4 18 10 SW 1016,2 52 0 0,0
22.09.2018 21:00:00 14,8 4,2 13,5 15,7 18,7 19,1 12 6 22 12 SW 1016,2 59 0 0,0
22.09.2018 20:00:00 15,4 3,8 14,3 16,3 18,9 19,1 14 8 30 16 WSW 1016,2 59 0 0,0
22.09.2018 19:00:00 16,3 3,7 15,2 17,3 19,0 19,1 16 9 30 16 WSW 1016,0 52 0 0,0
22.09.2018 18:00:00 16,8 3,8 16,1 18,4 19,0 19,1 20 11 42 23 WSW 1016,3 43 0 0,0
22.09.2018 17:00:00 17,2 4,6 17,5 19,7 18,9 19,1 22 12 35 19 W 1016,5 18 20 0,0
22.09.2018 16:00:00 17,1 5,5 17,7 20,1 18,8 19,1 23 12 40 22 WSW 1017,0 47 17 0,0
22.09.2018 15:00:00 17,6 6,0 20,3 20,2 18,5 19,1 23 12 39 21 W 1016,9 18 19 0,0
22.09.2018 14:00:00 16,0 6,1 17,2 19,4 18,3 19,1 22 12 36 20 W 1017,4 38 3 0,0
22.09.2018 13:00:00 15,9 6,8 17,9 19,4 18,0 19,1 20 11 37 20 WSW 1017,5 29 24 0,0
22.09.2018 12:00:00 14,7 6,8 15,9 17,8 17,8 19,1 23 13 37 20 W 1017,7 49 18 0,0
22.09.2018 11:00:00 13,7 7,8 14,9 16,6 17,7 19,1 24 13 39 21 W 1017,6 20 33 0,0
22.09.2018 10:00:00 12,5 7,9 13,1 14,7 17,8 19,1 23 12 36 20 WSW 1017,1 36 0 0,0
22.09.2018 09:00:00 11,4 7,2 10,8 13,7 17,9 19,1 21 11 35 19 WSW 1016,6 20 0 0,0
22.09.2018 08:00:00 12,0 6,2 11,4 13,2 18,2 19,1 21 11 31 17 SW 1015,9 59 0 0,0
22.09.2018 07:00:00 11,5 6,4 10,3 12,7 18,5 19,1 16 9 31 17 SW 1015,3 61 0 0,0
22.09.2018 06:00:00 11,8 7,0 10,2 13,1 18,8 19,1 18 10 31 17 SW 1014,6 50 0 0,0
22.09.2018 05:00:00 11,8 7,0 10,1 13,4 19,2 19,0 13 7 29 16 WSW 1014,1 51 0 0,0
22.09.2018 04:00:00 12,0 7,7 10,7 13,8 19,6 19,0 14 8 25 14 SW 1013,9 52 0 0,0
22.09.2018 03:00:00 12,1 7,1 10,5 14,2 20,0 19,0 16 9 26 14 WSW 1013,5 56 0 0,0
22.09.2018 02:00:00 12,1 8,4 10,4 14,8 20,4 19,0 13 7 29 15 SW 1013,1 48 0 0,0
22.09.2018 01:00:00 12,8 9,8 11,4 15,7 20,9 19,0 18 10 29 16 WSW 1012,7 38 0 0,0
22.09.2018 00:00:00 13,1 10,6 11,7 16,4 21,3 19,0 14 8 26 14 WSW 1012,1 29 0 0,0
21.09.2018 23:00:00 13,3 11,2 12,5 17,4 21,8 19,0 14 7 27 15 WSW 1011,3 29 0 0,0
21.09.2018 22:00:00 13,6 11,5 13,0 18,4 22,2 19,0 12 7 22 12 SW 1010,5 35 0 0,2
21.09.2018 21:00:00 13,9 11,3 13,1 19,3 22,7 19,0 15 8 29 15 W 1009,1 13 0 0,1
21.09.2018 20:00:00 14,5 11,4 13,6 20,5 23,1 19,0 19 10 39 21 W 1007,9 46 0 0,4
21.09.2018 19:00:00 15,7 12,3 14,3 23,3 23,3 19,0 27 14 81 44 W 1007,0 7 0 1,3
21.09.2018 18:00:00 28,1 10,8 27,2 26,9 23,3 19,0 18 10 41 22 SW 1002,8 25 0 0,0
21.09.2018 17:00:00 29,7 10,8 30,0 28,7 23,0 19,0 31 17 51 28 WSW 1002,8 12 37 0,0
21.09.2018 16:00:00 30,9 10,2 32,0 29,3 22,6 19,0 31 17 57 31 SSW 1003,0 12 42 0,0
21.09.2018 15:00:00 31,3 9,9 34,1 29,0 22,2 19,0 34 19 49 27 S 1003,9 9 37 0,0
21.09.2018 14:00:00 29,6 10,5 31,2 28,7 21,6 19,0 32 18 53 29 SSW 1005,4 9 52 0,0
21.09.2018 13:00:00 30,2 10,4 34,5 28,2 21,0 19,0 31 17 45 25 SSW 1006,2 4,1 60 0,0
21.09.2018 12:00:00 28,3 10,1 31,4 26,3 20,5 19,0 27 14 42 23 S 1007,2 6 59 0,0
21.09.2018 11:00:00 26,6 11,5 29,6 24,2 20,1 19,0 23 12 37 20 S 1008,0 4,5 60 0,0
21.09.2018 10:00:00 23,7 12,4 26,4 21,2 20,0 19,0 22 12 33 18 S 1009,0 6 60 0,0
21.09.2018 09:00:00 21,1 12,1 22,8 19,2 20,0 19,0 19 10 27 14 S 1009,7 6 60 0,0
21.09.2018 08:00:00 18,6 12,2 18,4 17,5 20,2 19,0 8 4 13 7 SSE 1009,9 12 24 0,0
21.09.2018 07:00:00 16,4 11,5 13,7 17,5 20,4 19,0 8 4 13 7 SE 1010,3 20 0 0,0
21.09.2018 06:00:00 17,6 12,1 15,0 17,9 20,6 19,0 9 5 18 10 SSE 1010,8 20 0 0,0
21.09.2018 05:00:00 18,4 12,4 16,3 17,9 20,8 18,9 11 6 16 9 S 1011,3 21 0 0,0
21.09.2018 04:00:00 17,0 11,4 14,2 18,1 21,1 18,9 10 5 15 8 SSE 1011,8 17 0 0,0
21.09.2018 03:00:00 17,7 12,1 13,4 18,4 21,4 18,9 8 5 11 6 S 1012,1 18 0 0,0
21.09.2018 02:00:00 17,3 12,0 14,9 18,8 21,7 18,9 6 3 8 4 SE 1012,4 17 0 0,0
21.09.2018 01:00:00 18,3 12,3 14,2 19,4 22,0 18,9 5 3 11 6 SSE 1012,8 17 0 0,0
21.09.2018 00:00:00 17,5 12,1 13,8 20,0 22,3 18,9 4 2 6 3 ESE 1013,3 17 0 0,0
20.09.2018 23:00:00 18,6 12,4 15,2 20,8 22,6 18,9 4 2 5 3 E 1013,7 19 0 0,0
20.09.2018 22:00:00 20,4 12,9 16,9 21,6 23,0 18,9 3 2 7 4 SSE 1014,0 20 0 0,0
20.09.2018 21:00:00 20,1 10,8 17,4 22,6 23,2 18,9 6 3 10 5 SE 1014,1 22 0 0,0
20.09.2018 20:00:00 23,1 11,9 18,7 24,0 23,4 18,9 5 3 7 4 SSE 1014,2 20 0 0,0
20.09.2018 19:00:00 26,7 12,1 22,6 26,1 23,5 18,9 5 3 19 11 SSW 1014,3 26 26 0,0
20.09.2018 18:00:00 28,9 12,3 28,9 28,1 23,3 18,9 16 9 35 19 SW 1014,8 22 57 0,0
20.09.2018 17:00:00 29,4 12,6 31,2 29,4 23,0 18,9 20 11 33 18 SSW 1015,0 15 58 0,0
20.09.2018 16:00:00 29,0 12,5 31,5 30,0 22,5 18,9 13 7 33 18 SSW 1015,5 13 60 0,0
20.09.2018 15:00:00 28,6 12,4 32,2 29,8 22,0 18,9 18 10 33 18 SW 1016,2 11 60 0,0
20.09.2018 14:00:00 27,5 12,0 32,5 29,2 21,3 18,9 12 7 23 12 SSW 1016,8 12 60 0,0
20.09.2018 13:00:00 25,9 11,0 30,4 27,8 20,7 18,9 10 5 19 11 SW 1017,7 20 60 0,0
20.09.2018 12:00:00 24,9 11,0 29,4 25,7 20,2 18,9 8 5 14 7 WSW 1018,4 19 60 0,0
20.09.2018 11:00:00 23,7 11,4 27,2 23,6 19,9 18,9 5 3 13 7 W 1018,7 20 60 0,0
20.09.2018 10:00:00 21,8 12,5 24,6 20,6 19,8 18,9 4 2 10 5 WSW 1018,8 16 37 0,0
20.09.2018 09:00:00 19,1 12,3 19,9 18,9 19,8 18,9 4 2 8 4 WSW 1018,5 16 16 0,0
20.09.2018 08:00:00 17,1 11,6 16,7 17,5 20,0 18,9 6 3 11 6 SW 1018,2 21 12 0,0
20.09.2018 07:00:00 14,5 10,0 12,4 17,1 20,2 18,9 6 3 9 5 S 1017,7 18 0 0,0
20.09.2018 06:00:00 15,4 10,8 12,4 17,4 20,5 18,9 3 2 6 4 SSE 1017,4 19 0 0,0
20.09.2018 05:00:00 16,3 11,4 12,5 17,8 20,7 18,9 4 2 9 5 SSE 1017,3 19 0 0,0
20.09.2018 04:00:00 16,3 10,7 13,4 18,2 21,0 18,9 6 3 9 5 SSE 1017,0 20 0 0,0
20.09.2018 03:00:00 16,4 10,9 13,5 18,7 21,3 18,9 7 4 10 5 SSE 1016,9 20 0 0,0
20.09.2018 02:00:00 17,4 10,6 14,8 19,3 21,6 18,9 6 4 11 6 SSE 1017,0 22 0 0,0
20.09.2018 01:00:00 19,0 11,0 15,0 20,0 21,8 18,9 5 3 15 8 S 1017,0 22 0 0,0
20.09.2018 00:00:00 21,2 11,3 18,2 20,5 22,1 18,9 10 5 18 10 S 1016,9 23 0 0,0
19.09.2018 23:00:00 22,0 11,5 19,5 21,0 22,4 18,9 10 6 16 8 S 1016,9 23 0 0,0
19.09.2018 22:00:00 21,9 11,5 19,2 21,5 22,7 18,9 10 5 16 8 SSE 1016,9 24 0 0,0
19.09.2018 21:00:00 21,2 10,8 17,7 22,5 23,0 18,9 8 4 11 6 SE 1016,9 25 0 0,0
19.09.2018 20:00:00 22,5 10,6 19,5 24,0 23,2 18,9 6 4 14 8 SE 1016,9 28 0 0,0
19.09.2018 19:00:00 26,7 11,5 24,5 26,2 23,2 18,8 10 6 18 10 S 1016,8 27 43 0,0
19.09.2018 18:00:00 28,1 11,5 28,6 28,2 23,1 18,8 11 6 23 12 S 1016,8 23 60 0,0
19.09.2018 17:00:00 28,4 11,4 30,4 29,6 22,7 18,8 12 7 23 12 WSW 1017,3 33 60 0,0
19.09.2018 16:00:00 28,5 11,7 31,5 30,2 22,2 18,8 16 9 25 14 SW 1017,6 16 60 0,0
19.09.2018 15:00:00 27,8 11,5 32,2 30,0 21,5 18,8 11 6 31 17 SW 1017,8 24 60 0,0
19.09.2018 14:00:00 27,8 11,9 32,8 29,2 20,9 18,8 10 6 22 12 SW 1018,1 17 60 0,0
19.09.2018 13:00:00 25,5 11,1 30,7 27,3 20,3 18,8 14 7 27 14 WSW 1018,4 24 59 0,0
19.09.2018 12:00:00 24,4 11,4 28,2 26,1 19,7 18,8 5 3 20 11 W 1018,6 25 60 0,0
19.09.2018 11:00:00 23,5 12,1 27,1 23,4 19,2 18,8 6 3 14 8 W 1018,6 23 51 0,0
19.09.2018 10:00:00 22,0 12,0 25,6 21,0 19,0 18,8 3 2 6 4 SSW 1018,6 25 60 0,0
19.09.2018 09:00:00 18,5 10,9 21,2 17,9 19,0 18,8 4 2 6 3 WSW 1018,1 17 60 0,0
19.09.2018 08:00:00 14,7 9,6 15,4 16,2 19,2 18,8 6 3 9 5 WNW 1017,6 14 35 0,0
19.09.2018 07:00:00 12,5 8,7 10,2 16,0 19,5 18,8 2 1 8 4 WSW 1016,9 14 0 0,0
19.09.2018 06:00:00 13,5 10,1 11,5 16,3 19,7 18,8 7 4 11 6 WNW 1016,5 13 0 0,0
19.09.2018 05:00:00 13,3 9,1 10,5 16,7 20,0 18,8 3 1 6 3 SSW 1015,7 15 0 0,0
19.09.2018 04:00:00 15,9 11,4 11,6 17,2 20,3 18,8 4 2 9 5 SSW 1015,0 17 0 0,0
19.09.2018 03:00:00 15,8 10,4 12,7 17,6 20,6 18,8 6 4 10 6 SSE 1014,2 18 0 0,0
19.09.2018 02:00:00 16,3 10,4 13,0 18,0 20,9 18,8 6 4 10 5 SSE 1014,2 20 0 0,0
19.09.2018 01:00:00 16,8 10,2 12,6 18,5 21,2 18,8 5 3 8 4 SSE 1014,2 20 0 0,0
19.09.2018 00:00:00 18,2 10,7 14,7 19,2 21,5 18,9 7 4 12 7 SSE 1014,0 21 0 0,0
18.09.2018 23:00:00 19,7 10,7 15,6 19,8 21,9 18,9 7 4 10 5 SSE 1014,0 20 0 0,0
18.09.2018 22:00:00 19,0 9,6 14,6 20,8 22,2 18,9 8 4 9 5 SE 1013,9 22 0 0,0
18.09.2018 21:00:00 21,5 11,3 17,5 22,0 22,5 18,9 7 4 12 6 SE 1013,8 23 0 0,0
18.09.2018 20:00:00 24,4 10,8 19,9 23,7 22,7 18,9 9 5 14 8 S 1013,7 26 0 0,0
18.09.2018 19:00:00 27,2 11,0 24,8 26,0 22,7 18,9 10 5 21 11 SSW 1013,6 29 59 0,0
18.09.2018 18:00:00 29,3 11,5 29,8 28,2 22,5 18,9 13 7 29 15 SW 1013,6 28 60 0,0
18.09.2018 17:00:00 30,1 9,7 32,2 29,4 22,0 18,9 16 9 29 15 SSW 1013,6 20 60 0,0
18.09.2018 16:00:00 30,4 10,4 33,8 30,1 21,4 18,9 14 8 35 19 S 1013,9 17 60 0,0
18.09.2018 15:00:00 30,0 11,0 34,2 29,9 20,7 18,9 16 9 31 17 S 1014,7 14 60 0,0
18.09.2018 14:00:00 29,1 11,6 33,9 29,0 19,9 18,9 13 7 32 17 SW 1015,4 15 60 0,0
18.09.2018 13:00:00 27,9 11,3 33,0 27,2 19,2 18,9 14 8 26 14 S 1016,1 17 60 0,0
18.09.2018 12:00:00 26,0 10,5 30,7 24,6 18,6 18,9 13 7 21 11 S 1016,7 19 60 0,0
18.09.2018 11:00:00 23,1 10,0 26,6 21,3 18,2 18,9 11 6 18 10 SSE 1017,2 21 60 0,0
18.09.2018 10:00:00 20,3 9,7 22,6 18,6 18,1 18,9 14 8 18 10 SE 1017,3 17 60 0,0
18.09.2018 09:00:00 16,1 9,2 17,8 16,4 18,1 18,9 10 5 14 8 SE 1017,6 16 60 0,0
18.09.2018 08:00:00 12,2 8,0 13,1 14,9 18,3 18,9 5 3 11 6 E 1017,7 13 28 0,0
18.09.2018 07:00:00 11,8 7,7 10,4 14,8 18,5 18,9 8 4 12 7 E 1017,5 18 0 0,0
18.09.2018 06:00:00 12,6 7,0 10,4 15,0 18,8 18,9 9 5 11 6 ESE 1017,4 21 0 0,0
18.09.2018 05:00:00 12,5 7,4 10,1 15,4 19,0 18,9 5 3 8 4 SE 1017,6 21 0 0,0
18.09.2018 04:00:00 12,6 7,2 10,4 15,7 19,3 18,9 5 3 9 5 SE 1017,8 21 0 0,0
18.09.2018 03:00:00 12,5 7,7 10,5 16,0 19,6 18,9 6 3 8 4 E 1018,0 19 0 0,0
18.09.2018 02:00:00 13,4 7,7 10,9 16,3 19,9 18,9 5 3 10 5 E 1018,2 22 0 0,0
18.09.2018 01:00:00 13,5 7,6 10,5 16,9 20,3 18,9 6 3 7 4 SE 1018,3 23 0 0,0
18.09.2018 00:00:00 14,1 8,2 11,2 17,4 20,6 18,9 6 3 8 4 SE 1018,4 24 0 0,0
17.09.2018 23:00:00 13,1 6,3 10,8 18,1 21,0 18,9 5 3 8 4 E 1018,5 26 0 0,0
17.09.2018 22:00:00 14,2 6,6 11,5 19,0 21,4 18,9 3 2 7 4 E 1018,6 31 0 0,0
17.09.2018 21:00:00 15,4 5,9 13,0 20,1 21,7 18,9 5 3 6 3 SE 1018,8 33 0 0,0
17.09.2018 20:00:00 19,3 6,8 14,0 22,0 22,0 18,9 2 1 6 3 ESE 1018,7 32 0 0,0
17.09.2018 19:00:00 24,0 5,9 20,1 24,4 22,0 18,9 5 3 16 9 SSW 1018,1 35 21 0,0
17.09.2018 18:00:00 26,2 5,8 26,3 26,6 21,8 18,9 13 7 19 10 S 1018,1 32 58 0,0
17.09.2018 17:00:00 26,8 5,7 28,2 27,8 21,4 18,9 9 5 22 12 WSW 1018,4 33 55 0,0
17.09.2018 16:00:00 27,4 5,2 30,1 28,7 20,9 18,9 9 5 22 12 SW 1018,8 24 60 0,0
17.09.2018 15:00:00 26,5 6,1 31,0 28,3 20,2 18,9 11 6 22 12 SW 1019,3 27 60 0,0
17.09.2018 14:00:00 25,6 6,1 29,8 27,3 19,6 18,9 14 8 24 13 SW 1019,8 27 60 0,0
17.09.2018 13:00:00 24,8 6,2 30,2 25,8 18,9 19,0 11 6 22 12 SW 1020,2 21 57 0,0
17.09.2018 12:00:00 23,6 7,0 27,9 24,4 18,3 19,0 10 5 16 8 SW 1020,6 26 60 0,0
17.09.2018 11:00:00 20,7 8,5 24,9 21,4 17,8 19,0 5 3 11 6 SSE 1020,9 17 60 0,0
17.09.2018 10:00:00 17,6 7,9 21,3 18,3 17,6 19,0 6 3 10 5 S 1020,8 17 60 0,0
17.09.2018 09:00:00 14,8 7,9 17,0 15,6 17,6 19,0 4 2 6 4 ESE 1020,8 23 60 0,0
17.09.2018 08:00:00 12,1 7,4 13,3 13,6 17,9 19,0 0 0 8 4 N 1020,6 19 50 0,0
17.09.2018 07:00:00 9,3 6,9 5,9 13,6 18,2 19,0 3 2 11 6 ESE 1020,6 18 0 0,0
17.09.2018 06:00:00 10,0 6,6 7,2 14,1 18,5 19,0 7 4 9 5 SE 1020,6 20 0 0,0
17.09.2018 05:00:00 10,9 7,7 7,7 14,7 18,7 19,0 3 2 8 4 SE 1020,6 22 0 0,0
17.09.2018 04:00:00 11,6 7,7 8,4 15,4 19,0 19,0 3 1 9 5 SE 1020,5 23 0 0,0

tt = Température de l'air
td = dewpoint
tt 5cm = Température de l'air 5cm
tt -5cm = Température de l'air -5cm
tt -20cm = Température de l'air -20cm
tt -100cm = Température de l'air -100cm
ff = Vitesse du vent
fx = gusts
dd = Direction du vent
ppp = reduced air pressure
vv = visibility
sd = Ensoleillement
rr = Quantités de précipitations

stations d'obs. à proximité